Find Starlink 35361

NORAD ID: 65667 Int'l Des: 2025-211 Owner: SPXS Country: US Constellation: starlink operational
LEOCIRCULARRETROGRADESSO

当前视图

正在加载3D地球...

About Starlink 35361

Starlink 35361 (NORAD 65667) is a starlink constellation satellite (v2 mini) launched Sep 19, 2025 by SPXS of US. It operates in LEO, CIRCULAR, RETROGRADE, SSO orbit with a mass of 575.00 kg.

即将过境

Passes for default location (London). Set your location on the main map for personalized predictions.

高度历史

Loading altitude history...

两行轨道根数

1 65667U 25211R 26262.94745970 .00015838 00000-0 49170-3 0 9993
2 65667 97.2842 303.1127 0001126 96.9539 263.1831 15.33457683 56439
Epoch: Sep 19, 2026 • Age: 23 hours

当前状态

高度 469.8 km
远地点 / 近地点 N/A
速度 7.63 km/s
星下点 -7.22°S, 161.18°E
发射日期 Sep 19, 2025
运行时间 1 year
类型 internet

技术详情

分类 Payload
质量 575.00 kg
干质量 530.00 kg
长度 0.30 m
跨度 29.00 m
形状 ? Box + pan
制造商 SPXS
平台类型 Starlink V2MO
阶段状态 In Orbit
所有者/国家 SPXS/US

Most Searched